TAM3320 SBGR-SBFZ

Flight info

Callsign TAM3320
Flight time 2h 47m
Altitude 37000
Route NUXEL UZ23 UTLEV UZ88 DOTKU
Aircraft A320/M-SDE3FGHIRWY/LB1

Departure

Time 2026-05-07 17:48
Airport São Paulo/Guarulhos–Governor André Franco Montoro International Airport (SBGR)

Arrival

Time 2026-05-07 20:36
Airport Pinto Martins International Airport (SBFZ)
Time Latitude Longitude Altitude Speed Heading
2026-05-07 17:31 -23.42973 -46.48281 2468 ft 0 kts 357°
2026-05-07 17:42 -23.42982 -46.48281 2468 ft 2 kts 357°
2026-05-07 17:42 -23.43002 -46.48280 2468 ft 2 kts 357°
2026-05-07 17:42 -23.43017 -46.48278 2468 ft 2 kts 357°
2026-05-07 17:42 -23.43032 -46.48278 2468 ft 1 kts 357°
2026-05-07 17:43 -23.43041 -46.48277 2468 ft 1 kts 345°
2026-05-07 17:43 -23.43050 -46.48272 2468 ft 2 kts 313°
2026-05-07 17:43 -23.43057 -46.48255 2468 ft 0 kts 269°
2026-05-07 17:43 -23.43056 -46.48248 2468 ft 1 kts 263°
2026-05-07 17:44 -23.43055 -46.48247 2468 ft 0 kts 264°
2026-05-07 17:45 -23.43056 -46.48248 2468 ft 0 kts 264°
2026-05-07 17:45 -23.43057 -46.48267 2468 ft 4 kts 265°
2026-05-07 17:46 -23.43061 -46.48318 2468 ft 8 kts 265°
2026-05-07 17:46 -23.43066 -46.48387 2468 ft 9 kts 264°
2026-05-07 17:46 -23.43112 -46.48426 2468 ft 10 kts 170°
2026-05-07 17:46 -23.43159 -46.48412 2467 ft 10 kts 164°
2026-05-07 17:47 -23.43261 -46.48379 2467 ft 11 kts 163°
2026-05-07 17:47 -23.43343 -46.48354 2467 ft 12 kts 164°
2026-05-07 17:47 -23.43412 -46.48305 2467 ft 12 kts 104°
2026-05-07 17:47 -23.43385 -46.48170 2467 ft 38 kts 73°
2026-05-07 17:48 -23.43241 -46.47635 2468 ft 105 kts 74°
2026-05-07 17:48 -23.42982 -46.46672 2470 ft 160 kts 73°
2026-05-07 17:48 -23.42639 -46.45402 2797 ft 178 kts 70°
2026-05-07 17:48 -23.42260 -46.44132 3290 ft 184 kts 68°
2026-05-07 17:49 -23.41844 -46.42742 3595 ft 200 kts 69°
2026-05-07 17:49 -23.41411 -46.41247 3879 ft 218 kts 69°
2026-05-07 17:49 -23.40933 -46.39588 4151 ft 239 kts 69°
2026-05-07 17:49 -23.40418 -46.37788 4516 ft 256 kts 68°
2026-05-07 17:50 -23.39721 -46.35944 4915 ft 269 kts 60°
2026-05-07 17:50 -23.38804 -46.34206 5630 ft 270 kts 55°
2026-05-07 17:50 -23.37793 -46.32492 6421 ft 269 kts 49°
2026-05-07 17:50 -23.36383 -46.31242 7122 ft 265 kts 22°
2026-05-07 17:51 -23.34672 -46.30501 7845 ft 267 kts 19°
2026-05-07 17:51 -23.32910 -46.29779 8565 ft 270 kts 19°
2026-05-07 17:51 -23.31168 -46.29044 9261 ft 273 kts 20°
2026-05-07 17:51 -23.29376 -46.28266 9964 ft 276 kts 20°
2026-05-07 17:52 -23.27595 -46.27478 10550 ft 283 kts 21°
2026-05-07 17:52 -23.25720 -46.26637 10896 ft 299 kts 22°
2026-05-07 17:52 -23.24429 -46.26052 11197 ft 305 kts 22°
2026-05-07 17:52 -23.21793 -46.24851 11972 ft 312 kts 22°
2026-05-07 17:53 -23.19769 -46.23926 12582 ft 314 kts 23°
2026-05-07 17:53 -23.18439 -46.23316 12969 ft 316 kts 23°
2026-05-07 17:53 -23.15705 -46.22061 13714 ft 321 kts 23°
2026-05-07 17:53 -23.13652 -46.21117 14268 ft 323 kts 23°
2026-05-07 17:54 -23.11557 -46.20153 14810 ft 326 kts 23°
2026-05-07 17:54 -23.09462 -46.19191 15344 ft 329 kts 23°
2026-05-07 17:54 -23.08059 -46.18547 15689 ft 331 kts 23°
2026-05-07 17:54 -23.05916 -46.17563 16188 ft 335 kts 23°
2026-05-07 17:55 -23.03047 -46.16247 16830 ft 340 kts 23°
2026-05-07 17:55 -23.00852 -46.15240 17325 ft 343 kts 23°
2026-05-07 17:55 -22.98643 -46.14227 17800 ft 347 kts 23°
2026-05-07 17:55 -22.96392 -46.13193 18274 ft 350 kts 23°
2026-05-07 17:56 -22.94136 -46.12159 18680 ft 355 kts 22°
2026-05-07 17:56 -22.92596 -46.11454 18958 ft 358 kts 22°
2026-05-07 17:56 -22.89522 -46.10047 19552 ft 363 kts 22°
2026-05-07 17:56 -22.87192 -46.08980 19978 ft 366 kts 22°
2026-05-07 17:57 -22.84832 -46.07901 20377 ft 371 kts 22°
2026-05-07 17:57 -22.83219 -46.07166 20640 ft 374 kts 21°
2026-05-07 17:57 -22.79991 -46.05691 21162 ft 379 kts 21°
2026-05-07 17:57 -22.77552 -46.04577 21554 ft 383 kts 21°
2026-05-07 17:58 -22.75090 -46.03453 21944 ft 387 kts 21°
2026-05-07 17:58 -22.72614 -46.02325 22421 ft 388 kts 21°
2026-05-07 17:58 -22.70917 -46.01550 22760 ft 388 kts 21°
2026-05-07 17:58 -22.68421 -46.00411 23179 ft 391 kts 21°
2026-05-07 17:59 -22.65902 -45.99265 23570 ft 395 kts 21°
2026-05-07 17:59 -22.63356 -45.98106 23965 ft 398 kts 21°
2026-05-07 17:59 -22.60803 -45.96944 24371 ft 401 kts 21°
2026-05-07 17:59 -22.57340 -45.95367 24859 ft 406 kts 21°
2026-05-07 18:00 -22.54722 -45.94176 25252 ft 409 kts 21°
2026-05-07 18:00 -22.53001 -45.93394 25505 ft 411 kts 21°
2026-05-07 18:00 -22.49459 -45.91782 25990 ft 416 kts 21°
2026-05-07 18:00 -22.46762 -45.90556 26327 ft 420 kts 21°
2026-05-07 18:01 -22.44971 -45.89741 26557 ft 422 kts 22°
2026-05-07 18:01 -22.41330 -45.88085 27037 ft 426 kts 21°
2026-05-07 18:01 -22.38593 -45.86842 27369 ft 430 kts 22°
2026-05-07 18:01 -22.35827 -45.85588 27724 ft 433 kts 21°
2026-05-07 18:02 -22.30269 -45.82968 28390 ft 439 kts 26°
2026-05-07 18:02 -22.27603 -45.81349 28720 ft 442 kts 32°
2026-05-07 18:02 -22.25882 -45.80104 28942 ft 443 kts 36°
2026-05-07 18:03 -22.22629 -45.77377 29355 ft 447 kts 39°
2026-05-07 18:03 -22.20198 -45.75257 29653 ft 450 kts 39°
2026-05-07 18:03 -22.17769 -45.73136 29972 ft 452 kts 39°
2026-05-07 18:03 -22.15309 -45.70993 30287 ft 454 kts 39°
2026-05-07 18:04 -22.13672 -45.69573 30481 ft 455 kts 39°
2026-05-07 18:04 -22.10365 -45.66711 30889 ft 458 kts 39°
2026-05-07 18:04 -22.07894 -45.64577 31171 ft 460 kts 39°
2026-05-07 18:04 -22.06208 -45.63121 31359 ft 461 kts 38°
2026-05-07 18:05 -22.02865 -45.60240 31711 ft 464 kts 39°
2026-05-07 18:05 -22.00347 -45.58072 31967 ft 466 kts 38°
2026-05-07 18:05 -21.97794 -45.55873 32215 ft 468 kts 38°
2026-05-07 18:05 -21.95246 -45.53682 32477 ft 470 kts 38°
2026-05-07 18:06 -21.92699 -45.51492 32695 ft 473 kts 38°
2026-05-07 18:06 -21.90977 -45.50011 32858 ft 474 kts 38°
2026-05-07 18:06 -21.88391 -45.47789 33089 ft 475 kts 38°
2026-05-07 18:06 -21.85813 -45.45575 33314 ft 477 kts 38°
2026-05-07 18:07 -21.83194 -45.43328 33530 ft 479 kts 38°
2026-05-07 18:07 -21.80604 -45.41106 33741 ft 481 kts 38°
2026-05-07 18:07 -21.78003 -45.38876 33980 ft 482 kts 39°
2026-05-07 18:07 -21.74487 -45.35864 34325 ft 482 kts 39°
2026-05-07 18:08 -21.72727 -45.34354 34507 ft 482 kts 38°
2026-05-07 18:08 -21.69239 -45.31366 34825 ft 483 kts 38°
2026-05-07 18:08 -21.67486 -45.29865 34971 ft 483 kts 38°
2026-05-07 18:08 -21.64008 -45.26890 35270 ft 484 kts 38°
2026-05-07 18:09 -21.61353 -45.24622 35457 ft 485 kts 38°
2026-05-07 18:09 -21.59589 -45.23113 35575 ft 486 kts 39°
2026-05-07 18:09 -21.56939 -45.20849 35729 ft 487 kts 39°
2026-05-07 18:09 -21.53392 -45.17817 35913 ft 489 kts 39°
2026-05-07 18:10 -21.50734 -45.15547 36063 ft 491 kts 38°
2026-05-07 18:10 -21.48958 -45.14033 36173 ft 491 kts 39°
2026-05-07 18:10 -21.45390 -45.10992 36321 ft 494 kts 38°
2026-05-07 18:10 -21.42706 -45.08701 36457 ft 495 kts 38°
2026-05-07 18:11 -21.40873 -45.07140 36536 ft 496 kts 39°
2026-05-07 18:11 -21.38201 -45.04867 36660 ft 497 kts 39°
2026-05-07 18:11 -21.35479 -45.02551 36781 ft 498 kts 39°
2026-05-07 18:11 -21.31859 -44.99469 36939 ft 499 kts 39°
2026-05-07 18:12 -21.30025 -44.97908 37023 ft 500 kts 39°
2026-05-07 18:12 -21.24576 -44.93277 37128 ft 504 kts 39°
2026-05-07 18:13 -21.19022 -44.88561 37131 ft 510 kts 39°
2026-05-07 18:13 -21.13445 -44.83834 37129 ft 514 kts 39°
2026-05-07 18:14 -21.07861 -44.79101 37131 ft 515 kts 39°
2026-05-07 18:14 -21.02113 -44.74462 37138 ft 514 kts 36°
2026-05-07 18:15 -20.96298 -44.70028 37137 ft 516 kts 36°
2026-05-07 18:15 -20.89451 -44.64816 37141 ft 516 kts 36°
2026-05-07 18:16 -20.84617 -44.61128 37142 ft 515 kts 36°
2026-05-07 18:16 -20.78746 -44.56652 37152 ft 516 kts 36°
2026-05-07 18:17 -20.71936 -44.51465 37160 ft 516 kts 36°
2026-05-07 18:17 -20.67078 -44.47770 37161 ft 515 kts 36°
2026-05-07 18:18 -20.61240 -44.43328 37154 ft 515 kts 37°
2026-05-07 18:18 -20.55411 -44.38895 37149 ft 516 kts 37°
2026-05-07 18:19 -20.48562 -44.33694 37140 ft 517 kts 37°
2026-05-07 18:19 -20.43708 -44.30011 37137 ft 517 kts 37°
2026-05-07 18:20 -20.36952 -44.24683 37140 ft 516 kts 38°
2026-05-07 18:20 -20.32174 -44.20870 37141 ft 516 kts 38°
2026-05-07 18:21 -20.26422 -44.16297 37145 ft 517 kts 38°
2026-05-07 18:21 -20.20640 -44.11719 37147 ft 516 kts 38°
2026-05-07 18:22 -20.14802 -44.07245 37152 ft 516 kts 33°
2026-05-07 18:22 -20.08484 -44.03672 37160 ft 517 kts 22°
2026-05-07 18:23 -20.01631 -44.01273 37160 ft 517 kts 12°
2026-05-07 18:23 -19.94551 -43.99897 37160 ft 517 kts
2026-05-07 18:24 -19.86231 -43.98455 37148 ft 517 kts
2026-05-07 18:24 -19.80302 -43.97403 37141 ft 517 kts
2026-05-07 18:25 -19.73237 -43.96133 37132 ft 517 kts
2026-05-07 18:25 -19.66119 -43.94847 37127 ft 518 kts
2026-05-07 18:26 -19.58994 -43.93559 37123 ft 518 kts
2026-05-07 18:26 -19.50677 -43.92056 37120 ft 518 kts
2026-05-07 18:27 -19.44772 -43.90991 37112 ft 518 kts
2026-05-07 18:27 -19.36478 -43.89498 37107 ft 517 kts
2026-05-07 18:28 -19.29376 -43.88220 37102 ft 517 kts
2026-05-07 18:28 -19.22241 -43.86938 37094 ft 517 kts
2026-05-07 18:29 -19.16314 -43.85873 37098 ft 517 kts
2026-05-07 18:29 -19.09257 -43.84607 37103 ft 516 kts
2026-05-07 18:30 -19.02142 -43.83330 37111 ft 516 kts
2026-05-07 18:30 -18.93864 -43.81846 37121 ft 517 kts
2026-05-07 18:31 -18.87938 -43.80785 37124 ft 517 kts
2026-05-07 18:31 -18.79668 -43.79305 37127 ft 517 kts
2026-05-07 18:32 -18.73716 -43.78244 37135 ft 516 kts
2026-05-07 18:32 -18.65449 -43.76766 37138 ft 517 kts
2026-05-07 18:33 -18.59569 -43.75719 37141 ft 517 kts
2026-05-07 18:33 -18.51242 -43.74233 37147 ft 517 kts
2026-05-07 18:34 -18.45338 -43.73181 37148 ft 517 kts
2026-05-07 18:34 -18.38252 -43.71920 37152 ft 517 kts
2026-05-07 18:35 -18.29981 -43.70448 37153 ft 517 kts
2026-05-07 18:35 -18.22860 -43.69184 37157 ft 517 kts
2026-05-07 18:36 -18.16948 -43.68133 37158 ft 516 kts
2026-05-07 18:36 -18.08738 -43.66438 37152 ft 517 kts 14°
2026-05-07 18:37 -18.02966 -43.64709 37150 ft 517 kts 16°
2026-05-07 18:37 -17.96047 -43.62559 37144 ft 516 kts 17°
2026-05-07 18:38 -17.89123 -43.60416 37142 ft 517 kts 16°
2026-05-07 18:38 -17.82216 -43.58293 37142 ft 517 kts 16°
2026-05-07 18:39 -17.75341 -43.56182 37142 ft 517 kts 16°
2026-05-07 18:39 -17.68437 -43.54066 37138 ft 517 kts 16°
2026-05-07 18:40 -17.61508 -43.51945 37129 ft 517 kts 16°
2026-05-07 18:40 -17.54599 -43.49832 37120 ft 517 kts 16°
2026-05-07 18:41 -17.46511 -43.47358 37110 ft 517 kts 16°
2026-05-07 18:41 -17.40754 -43.45600 37113 ft 516 kts 17°
2026-05-07 18:42 -17.33849 -43.43492 37115 ft 516 kts 17°
2026-05-07 18:42 -17.26982 -43.41398 37116 ft 516 kts 17°
2026-05-07 18:43 -17.20061 -43.39287 37120 ft 516 kts 16°
2026-05-07 18:43 -17.13169 -43.37190 37118 ft 516 kts 17°
2026-05-07 18:44 -17.05112 -43.34737 37117 ft 516 kts 16°
2026-05-07 18:44 -16.99331 -43.32978 37115 ft 517 kts 16°
2026-05-07 18:45 -16.92442 -43.30888 37119 ft 517 kts 16°
2026-05-07 18:45 -16.85496 -43.28778 37107 ft 517 kts 16°
2026-05-07 18:46 -16.78604 -43.26687 37116 ft 516 kts 16°
2026-05-07 18:46 -16.71705 -43.24593 37118 ft 516 kts 16°
2026-05-07 18:47 -16.64792 -43.22501 37118 ft 515 kts 16°
2026-05-07 18:47 -16.57882 -43.20410 37121 ft 515 kts 16°
2026-05-07 18:48 -16.50990 -43.18324 37117 ft 514 kts 16°
2026-05-07 18:48 -16.44141 -43.16255 37117 ft 515 kts 16°
2026-05-07 18:49 -16.37217 -43.14163 37115 ft 514 kts 16°
2026-05-07 18:49 -16.30367 -43.12093 37114 ft 515 kts 16°
2026-05-07 18:50 -16.23455 -43.10010 37111 ft 515 kts 16°
2026-05-07 18:50 -16.16602 -43.07843 37109 ft 515 kts 19°
2026-05-07 18:51 -16.08677 -43.05009 37112 ft 516 kts 20°
2026-05-07 18:51 -16.03015 -43.02970 37107 ft 515 kts 20°
2026-05-07 18:52 -15.95117 -43.00139 37110 ft 515 kts 19°
2026-05-07 18:52 -15.89468 -42.98118 37104 ft 515 kts 20°
2026-05-07 18:53 -15.82686 -42.95692 37093 ft 515 kts 19°
2026-05-07 18:53 -15.74761 -42.92863 37082 ft 513 kts 19°
2026-05-07 18:54 -15.69127 -42.90852 37081 ft 513 kts 19°
2026-05-07 18:54 -15.61262 -42.88047 37084 ft 514 kts 19°
2026-05-07 18:55 -15.55590 -42.86023 37084 ft 513 kts 19°
2026-05-07 18:55 -15.48846 -42.83622 37087 ft 512 kts 19°
2026-05-07 18:56 -15.42112 -42.81227 37094 ft 512 kts 19°
2026-05-07 18:56 -15.35331 -42.78816 37105 ft 512 kts 19°
2026-05-07 18:57 -15.27479 -42.76024 37118 ft 512 kts 19°
2026-05-07 18:57 -15.21849 -42.74023 37117 ft 513 kts 19°
2026-05-07 18:58 -15.15085 -42.71621 37109 ft 513 kts 19°
2026-05-07 18:58 -15.08327 -42.69225 37097 ft 512 kts 19°
2026-05-07 18:59 -15.01590 -42.66839 37089 ft 511 kts 19°
2026-05-07 18:59 -14.94826 -42.64443 37080 ft 511 kts 19°
2026-05-07 19:00 -14.88083 -42.62055 37074 ft 511 kts 19°
2026-05-07 19:00 -14.81367 -42.59678 37065 ft 511 kts 19°
2026-05-07 19:01 -14.74610 -42.57291 37057 ft 510 kts 19°
2026-05-07 19:01 -14.67872 -42.54908 37053 ft 510 kts 19°
2026-05-07 19:02 -14.61171 -42.52541 37049 ft 510 kts 19°
2026-05-07 19:02 -14.54457 -42.50172 37050 ft 510 kts 19°
2026-05-07 19:03 -14.47724 -42.47797 37051 ft 510 kts 19°
2026-05-07 19:03 -14.40982 -42.45424 37047 ft 510 kts 19°
2026-05-07 19:04 -14.33146 -42.42664 37048 ft 509 kts 19°
2026-05-07 19:04 -14.27558 -42.40698 37046 ft 509 kts 19°
2026-05-07 19:05 -14.20834 -42.38334 37043 ft 509 kts 19°
2026-05-07 19:05 -14.13031 -42.35592 37032 ft 509 kts 19°
2026-05-07 19:06 -14.07417 -42.33619 37026 ft 509 kts 18°
2026-05-07 19:06 -13.97354 -42.30087 37027 ft 510 kts 18°
2026-05-07 19:07 -13.90634 -42.27727 37027 ft 509 kts 18°
2026-05-07 19:07 -13.82781 -42.24976 37025 ft 508 kts 18°
2026-05-07 19:08 -13.77209 -42.23022 37026 ft 507 kts 18°
2026-05-07 19:08 -13.70523 -42.20681 37030 ft 507 kts 18°
2026-05-07 19:09 -13.63814 -42.18333 37038 ft 507 kts 18°
2026-05-07 19:09 -13.57133 -42.15963 37051 ft 506 kts 18°
2026-05-07 19:10 -13.50463 -42.13574 37062 ft 506 kts 18°
2026-05-07 19:10 -13.43814 -42.11196 37079 ft 505 kts 18°
2026-05-07 19:11 -13.37195 -42.08833 37094 ft 505 kts 18°
2026-05-07 19:11 -13.29413 -42.06056 37109 ft 504 kts 18°
2026-05-07 19:12 -13.22789 -42.03693 37111 ft 504 kts 18°
2026-05-07 19:12 -13.16140 -42.01324 37124 ft 504 kts 18°
2026-05-07 19:13 -13.10620 -41.99359 37134 ft 503 kts 18°
2026-05-07 19:13 -13.02923 -41.96617 37138 ft 502 kts 18°
2026-05-07 19:14 -12.97374 -41.94644 37139 ft 501 kts 18°
2026-05-07 19:14 -12.90805 -41.92308 37135 ft 501 kts 18°
2026-05-07 19:15 -12.84185 -41.89955 37130 ft 501 kts 18°
2026-05-07 19:15 -12.76499 -41.87226 37128 ft 501 kts 18°
2026-05-07 19:16 -12.70989 -41.85272 37120 ft 501 kts 18°
2026-05-07 19:16 -12.64374 -41.82924 37116 ft 502 kts 18°
2026-05-07 19:17 -12.56712 -41.80207 37109 ft 501 kts 18°
2026-05-07 19:17 -12.50111 -41.77867 37104 ft 500 kts 18°
2026-05-07 19:18 -12.44628 -41.75924 37103 ft 500 kts 17°
2026-05-07 19:18 -12.38020 -41.73587 37106 ft 500 kts 17°
2026-05-07 19:19 -12.30361 -41.70875 37109 ft 499 kts 17°
2026-05-07 19:19 -12.24870 -41.68935 37107 ft 498 kts 17°
2026-05-07 19:20 -12.18337 -41.66624 37103 ft 498 kts 17°
2026-05-07 19:20 -12.11753 -41.64298 37103 ft 499 kts 17°
2026-05-07 19:21 -12.05194 -41.61985 37099 ft 498 kts 17°
2026-05-07 19:21 -11.98639 -41.59669 37102 ft 498 kts 17°
2026-05-07 19:22 -11.92082 -41.57356 37099 ft 498 kts 17°
2026-05-07 19:22 -11.84426 -41.54657 37086 ft 496 kts 17°
2026-05-07 19:23 -11.78955 -41.52729 37082 ft 496 kts 17°
2026-05-07 19:23 -11.72457 -41.50440 37067 ft 496 kts 17°
2026-05-07 19:24 -11.65885 -41.48257 37064 ft 495 kts 14°
2026-05-07 19:24 -11.59266 -41.46222 37057 ft 494 kts 14°
2026-05-07 19:25 -11.52663 -41.44181 37054 ft 495 kts 14°
2026-05-07 19:25 -11.46094 -41.42135 37054 ft 495 kts 14°
2026-05-07 19:26 -11.39492 -41.40074 37055 ft 494 kts 14°
2026-05-07 19:26 -11.32923 -41.38023 37056 ft 494 kts 14°
2026-05-07 19:27 -11.26322 -41.35963 37051 ft 493 kts 14°
2026-05-07 19:27 -11.19779 -41.33871 37051 ft 493 kts 15°
2026-05-07 19:28 -11.13273 -41.31615 37042 ft 492 kts 16°
2026-05-07 19:28 -11.05678 -41.28986 37032 ft 492 kts 16°
2026-05-07 19:29 -11.00290 -41.27138 37031 ft 492 kts 16°
2026-05-07 19:29 -10.93764 -41.24909 37033 ft 492 kts 15°
2026-05-07 19:30 -10.87285 -41.22695 37030 ft 491 kts 16°
2026-05-07 19:30 -10.79703 -41.20105 37030 ft 491 kts 16°
2026-05-07 19:31 -10.74289 -41.18256 37027 ft 491 kts 16°
2026-05-07 19:31 -10.67797 -41.16039 37029 ft 490 kts 16°
2026-05-07 19:32 -10.61317 -41.13828 37029 ft 489 kts 15°
2026-05-07 19:32 -10.54877 -41.11630 37031 ft 488 kts 15°
2026-05-07 19:33 -10.48415 -41.09425 37033 ft 487 kts 15°
2026-05-07 19:33 -10.40921 -41.06871 37039 ft 487 kts 15°
2026-05-07 19:34 -10.35553 -41.05039 37044 ft 488 kts 16°
2026-05-07 19:34 -10.29121 -41.02845 37049 ft 488 kts 16°
2026-05-07 19:35 -10.22668 -41.00642 37052 ft 487 kts 15°
2026-05-07 19:35 -10.16225 -40.98444 37052 ft 486 kts 15°
2026-05-07 19:36 -10.09836 -40.96266 37051 ft 485 kts 16°
2026-05-07 19:36 -10.03399 -40.94072 37048 ft 484 kts 16°
2026-05-07 19:37 -9.97030 -40.91912 37041 ft 483 kts 15°
2026-05-07 19:37 -9.90645 -40.89749 37031 ft 483 kts 16°
2026-05-07 19:38 -9.84249 -40.87580 37029 ft 483 kts 16°
2026-05-07 19:38 -9.77859 -40.85414 37025 ft 483 kts 16°
2026-05-07 19:39 -9.71469 -40.83247 37015 ft 482 kts 15°
2026-05-07 19:39 -9.65077 -40.81082 37002 ft 482 kts 15°
2026-05-07 19:40 -9.58726 -40.78931 36989 ft 481 kts 16°
2026-05-07 19:40 -9.52377 -40.76781 36972 ft 480 kts 16°
2026-05-07 19:41 -9.46032 -40.74635 36958 ft 480 kts 16°
2026-05-07 19:41 -9.39712 -40.72497 36955 ft 480 kts 16°
2026-05-07 19:42 -9.33369 -40.70349 36953 ft 479 kts 16°
2026-05-07 19:42 -9.27023 -40.68202 36955 ft 479 kts 16°
2026-05-07 19:43 -9.20708 -40.66066 36954 ft 478 kts 16°
2026-05-07 19:43 -9.14403 -40.63934 36952 ft 477 kts 16°
2026-05-07 19:44 -9.08085 -40.61798 36951 ft 476 kts 16°
2026-05-07 19:44 -9.01784 -40.59670 36945 ft 476 kts 16°
2026-05-07 19:45 -8.95499 -40.57546 36942 ft 475 kts 16°
2026-05-07 19:45 -8.89228 -40.55428 36941 ft 475 kts 16°
2026-05-07 19:46 -8.82967 -40.53315 36943 ft 475 kts 16°
2026-05-07 19:46 -8.76660 -40.51186 36942 ft 475 kts 15°
2026-05-07 19:47 -8.70384 -40.49068 36942 ft 474 kts 15°
2026-05-07 19:47 -8.64138 -40.46962 36943 ft 474 kts 15°
2026-05-07 19:48 -8.56820 -40.44496 36946 ft 474 kts 15°
2026-05-07 19:48 -8.50556 -40.42386 36943 ft 473 kts 15°
2026-05-07 19:49 -8.45339 -40.40628 36943 ft 473 kts 15°
2026-05-07 19:49 -8.39074 -40.38518 36944 ft 473 kts 15°
2026-05-07 19:50 -8.31786 -40.36064 36945 ft 473 kts 15°
2026-05-07 19:50 -8.26574 -40.34313 36946 ft 472 kts 15°
2026-05-07 19:51 -8.20330 -40.32213 36950 ft 472 kts 15°
2026-05-07 19:51 -8.13085 -40.29776 36947 ft 471 kts 15°
2026-05-07 19:52 -8.07878 -40.28024 36943 ft 471 kts 15°
2026-05-07 19:52 -8.00629 -40.25589 36936 ft 470 kts 14°
2026-05-07 19:53 -7.95443 -40.23846 36933 ft 470 kts 14°
2026-05-07 19:53 -7.89234 -40.21762 36937 ft 470 kts 14°
2026-05-07 19:54 -7.82994 -40.19667 36940 ft 469 kts 14°
2026-05-07 19:54 -7.75746 -40.17234 36948 ft 469 kts 14°
2026-05-07 19:55 -7.69574 -40.15163 36950 ft 469 kts 14°
2026-05-07 19:55 -7.64366 -40.13416 36955 ft 469 kts 14°
2026-05-07 19:56 -7.58192 -40.11344 36958 ft 469 kts 14°
2026-05-07 19:56 -7.51980 -40.09261 36965 ft 469 kts 14°
2026-05-07 19:57 -7.44734 -40.06825 36972 ft 468 kts 14°
2026-05-07 19:57 -7.39592 -40.05098 36978 ft 468 kts 14°
2026-05-07 19:58 -7.33411 -40.03020 36984 ft 468 kts 14°
2026-05-07 19:58 -7.26194 -40.00594 36989 ft 467 kts 14°
2026-05-07 19:59 -7.21052 -39.98867 36990 ft 467 kts 14°
2026-05-07 19:59 -7.14876 -39.96794 36982 ft 467 kts 14°
2026-05-07 20:00 -7.08690 -39.94719 36971 ft 466 kts 14°
2026-05-07 20:00 -7.02496 -39.92640 36959 ft 466 kts 14°
2026-05-07 20:01 -6.96361 -39.90580 36954 ft 466 kts 15°
2026-05-07 20:01 -6.90188 -39.88509 36951 ft 466 kts 15°
2026-05-07 20:02 -6.84011 -39.86438 36942 ft 465 kts 15°
2026-05-07 20:02 -6.77858 -39.84386 36934 ft 465 kts 15°
2026-05-07 20:03 -6.71686 -39.82331 36927 ft 465 kts 15°
2026-05-07 20:03 -6.65555 -39.80288 36919 ft 465 kts 15°
2026-05-07 20:04 -6.58355 -39.77889 36910 ft 465 kts 15°
2026-05-07 20:04 -6.53240 -39.76187 36902 ft 465 kts 15°
2026-05-07 20:05 -6.47044 -39.74123 36897 ft 465 kts 15°
2026-05-07 20:05 -6.40914 -39.72080 36906 ft 465 kts 15°
2026-05-07 20:06 -6.34774 -39.70036 36918 ft 465 kts 15°
2026-05-07 20:06 -6.28600 -39.67980 36928 ft 464 kts 15°
2026-05-07 20:07 -6.22477 -39.65942 36940 ft 464 kts 15°
2026-05-07 20:07 -6.15309 -39.63558 36949 ft 464 kts 15°
2026-05-07 20:08 -6.10199 -39.61858 36944 ft 464 kts 15°
2026-05-07 20:08 -6.04046 -39.59808 36950 ft 464 kts 15°
2026-05-07 20:09 -5.97903 -39.57764 36956 ft 463 kts 16°
2026-05-07 20:10 -5.88723 -39.54705 36947 ft 464 kts 16°
2026-05-07 20:10 -5.82574 -39.52659 36934 ft 464 kts 15°
2026-05-07 20:11 -5.76438 -39.50617 36920 ft 464 kts 16°
2026-05-07 20:11 -5.70274 -39.48566 36919 ft 464 kts 16°
2026-05-07 20:12 -5.64117 -39.46518 36916 ft 464 kts 16°
2026-05-07 20:12 -5.56952 -39.44136 36741 ft 465 kts 16°
2026-05-07 20:12 -5.54904 -39.43455 36544 ft 465 kts 16°
2026-05-07 20:13 -5.50774 -39.42082 36149 ft 466 kts 16°
2026-05-07 20:13 -5.48713 -39.41396 35952 ft 466 kts 16°
2026-05-07 20:13 -5.45659 -39.40381 35660 ft 467 kts 16°
2026-05-07 20:13 -5.42540 -39.39343 35253 ft 468 kts 16°
2026-05-07 20:14 -5.39443 -39.38314 34660 ft 469 kts 16°
2026-05-07 20:14 -5.36335 -39.37281 33964 ft 471 kts 16°
2026-05-07 20:14 -5.33254 -39.36256 33214 ft 471 kts 16°
2026-05-07 20:14 -5.30118 -39.35213 32449 ft 468 kts 15°
2026-05-07 20:15 -5.27029 -39.34187 31688 ft 467 kts 15°
2026-05-07 20:15 -5.23934 -39.33160 30901 ft 467 kts 15°
2026-05-07 20:15 -5.20882 -39.32146 30382 ft 460 kts 15°
2026-05-07 20:15 -5.17868 -39.31145 29870 ft 455 kts 15°
2026-05-07 20:16 -5.14875 -39.30149 29355 ft 450 kts 15°
2026-05-07 20:16 -5.11900 -39.29160 28837 ft 445 kts 15°
2026-05-07 20:16 -5.08978 -39.28191 28337 ft 441 kts 15°
2026-05-07 20:16 -5.06092 -39.27234 27869 ft 437 kts 15°
2026-05-07 20:17 -5.03205 -39.26276 27392 ft 432 kts 15°
2026-05-07 20:17 -5.00371 -39.25336 26919 ft 428 kts 16°
2026-05-07 20:17 -4.96599 -39.24085 26282 ft 422 kts 15°
2026-05-07 20:17 -4.94753 -39.23473 25966 ft 420 kts 16°
2026-05-07 20:18 -4.91079 -39.22254 25334 ft 414 kts 16°
2026-05-07 20:18 -4.89269 -39.21654 25016 ft 412 kts 16°
2026-05-07 20:18 -4.86530 -39.20745 24531 ft 408 kts 16°
2026-05-07 20:18 -4.83860 -39.19860 24052 ft 404 kts 16°
2026-05-07 20:19 -4.81185 -39.18972 23579 ft 400 kts 17°
2026-05-07 20:19 -4.78562 -39.18102 23111 ft 396 kts 17°
2026-05-07 20:19 -4.75953 -39.17237 22645 ft 392 kts 17°
2026-05-07 20:19 -4.73354 -39.16374 22178 ft 389 kts 17°
2026-05-07 20:20 -4.70794 -39.15525 21708 ft 385 kts 17°
2026-05-07 20:20 -4.68271 -39.14688 21236 ft 382 kts 17°
2026-05-07 20:20 -4.65762 -39.13856 20772 ft 379 kts 17°
2026-05-07 20:20 -4.63254 -39.13023 20304 ft 375 kts 17°
2026-05-07 20:21 -4.60778 -39.12202 19847 ft 372 kts 17°
2026-05-07 20:21 -4.58347 -39.11397 19389 ft 369 kts 17°
2026-05-07 20:21 -4.55903 -39.10590 18919 ft 367 kts 18°
2026-05-07 20:21 -4.52684 -39.09525 18316 ft 363 kts 18°
2026-05-07 20:22 -4.51069 -39.08992 18017 ft 361 kts 18°
2026-05-07 20:22 -4.48701 -39.08209 17564 ft 359 kts 18°
2026-05-07 20:22 -4.46327 -39.07424 17112 ft 357 kts 18°
2026-05-07 20:22 -4.43968 -39.06644 16653 ft 355 kts 18°
2026-05-07 20:23 -4.41625 -39.05846 16192 ft 354 kts 20°
2026-05-07 20:23 -4.39353 -39.04900 15716 ft 353 kts 25°
2026-05-07 20:23 -4.37149 -39.03775 15173 ft 354 kts 29°
2026-05-07 20:23 -4.34975 -39.02565 14666 ft 354 kts 30°
2026-05-07 20:24 -4.32119 -39.00959 14038 ft 352 kts 30°
2026-05-07 20:24 -4.30712 -39.00168 13730 ft 350 kts 30°
2026-05-07 20:24 -4.28573 -38.98965 13252 ft 348 kts 30°
2026-05-07 20:24 -4.26473 -38.97787 12786 ft 346 kts 31°
2026-05-07 20:25 -4.24380 -38.96611 12315 ft 343 kts 31°
2026-05-07 20:25 -4.22289 -38.95438 11853 ft 340 kts 31°
2026-05-07 20:25 -4.20244 -38.94291 11397 ft 338 kts 31°
2026-05-07 20:25 -4.18201 -38.93144 10931 ft 335 kts 31°
2026-05-07 20:26 -4.15501 -38.91627 10304 ft 331 kts 32°
2026-05-07 20:26 -4.14159 -38.90875 9996 ft 329 kts 32°
2026-05-07 20:26 -4.12150 -38.89749 9540 ft 326 kts 32°
2026-05-07 20:26 -4.10201 -38.88657 9098 ft 323 kts 32°
2026-05-07 20:27 -4.08223 -38.87546 8650 ft 320 kts 32°
2026-05-07 20:27 -4.06294 -38.86463 8211 ft 317 kts 32°
2026-05-07 20:27 -4.04390 -38.85393 7776 ft 314 kts 32°
2026-05-07 20:27 -4.02488 -38.84327 7340 ft 311 kts 32°
2026-05-07 20:28 -4.00616 -38.83277 6913 ft 308 kts 32°
2026-05-07 20:28 -3.98733 -38.82220 6481 ft 306 kts 32°
2026-05-07 20:28 -3.96888 -38.81187 6061 ft 304 kts 32°
2026-05-07 20:28 -3.95036 -38.80148 5638 ft 302 kts 32°
2026-05-07 20:29 -3.93201 -38.79117 5215 ft 300 kts 32°
2026-05-07 20:29 -3.91392 -38.78103 4799 ft 298 kts 32°
2026-05-07 20:29 -3.89005 -38.76766 4476 ft 286 kts 31°
2026-05-07 20:29 -3.87851 -38.76121 4433 ft 276 kts 32°
2026-05-07 20:30 -3.86217 -38.75206 4373 ft 262 kts 32°
2026-05-07 20:30 -3.84659 -38.74336 4318 ft 249 kts 32°
2026-05-07 20:30 -3.83179 -38.73512 4268 ft 236 kts 30°
2026-05-07 20:30 -3.81690 -38.72873 4181 ft 228 kts 21°
2026-05-07 20:31 -3.80174 -38.72423 3994 ft 224 kts 18°
2026-05-07 20:31 -3.78669 -38.72014 3800 ft 219 kts 18°
2026-05-07 20:31 -3.77207 -38.71623 3621 ft 214 kts 18°
2026-05-07 20:31 -3.75787 -38.71239 3455 ft 208 kts 18°
2026-05-07 20:32 -3.74449 -38.70766 3277 ft 202 kts 39°
2026-05-07 20:32 -3.73591 -38.69714 3026 ft 194 kts 76°
2026-05-07 20:32 -3.73527 -38.68410 2797 ft 185 kts 100°
2026-05-07 20:32 -3.73837 -38.67167 2447 ft 186 kts 107°
2026-05-07 20:33 -3.74211 -38.65961 2303 ft 175 kts 107°
2026-05-07 20:33 -3.74550 -38.64805 2087 ft 170 kts 106°
2026-05-07 20:33 -3.74858 -38.63676 1864 ft 165 kts 105°
2026-05-07 20:33 -3.75148 -38.62582 1649 ft 158 kts 105°
2026-05-07 20:34 -3.75414 -38.61570 1461 ft 143 kts 105°
2026-05-07 20:34 -3.75664 -38.60627 1285 ft 139 kts 104°
2026-05-07 20:34 -3.75912 -38.59700 1115 ft 139 kts 105°
2026-05-07 20:34 -3.76160 -38.58804 947 ft 138 kts 104°
2026-05-07 20:35 -3.76404 -38.57866 777 ft 138 kts 104°
2026-05-07 20:35 -3.76652 -38.56934 603 ft 138 kts 104°
2026-05-07 20:35 -3.76898 -38.56003 421 ft 138 kts 104°
2026-05-07 20:35 -3.77144 -38.55082 257 ft 137 kts 104°
2026-05-07 20:36 -3.77387 -38.54167 101 ft 135 kts 103°
2026-05-07 20:36 -3.77597 -38.53372 92 ft 93 kts 105°
2026-05-07 20:36 -3.77719 -38.52912 89 ft 44 kts 105°
2026-05-07 20:36 -3.77784 -38.52673 87 ft 22 kts 105°
2026-05-07 20:37 -3.77833 -38.52608 87 ft 12 kts 199°
2026-05-07 20:37 -3.77880 -38.52679 87 ft 12 kts 243°
2026-05-07 20:37 -3.77916 -38.52760 89 ft 12 kts 264°
2026-05-07 20:37 -3.77898 -38.52847 89 ft 13 kts 285°
2026-05-07 20:38 -3.77874 -38.52937 90 ft 13 kts 285°
2026-05-07 20:38 -3.77849 -38.53032 91 ft 14 kts 284°
2026-05-07 20:38 -3.77823 -38.53130 91 ft 14 kts 285°
2026-05-07 20:38 -3.77796 -38.53229 92 ft 15 kts 285°
2026-05-07 20:39 -3.77770 -38.53330 93 ft 15 kts 284°
2026-05-07 20:39 -3.77742 -38.53434 93 ft 15 kts 285°
2026-05-07 20:39 -3.77715 -38.53534 94 ft 14 kts 285°
2026-05-07 20:39 -3.77691 -38.53626 94 ft 12 kts 284°
2026-05-07 20:40 -3.77670 -38.53705 95 ft 11 kts 284°
2026-05-07 20:40 -3.77669 -38.53773 95 ft 9 kts 239°
2026-05-07 20:40 -3.77699 -38.53824 95 ft 6 kts 239°
2026-05-07 20:40 -3.77720 -38.53859 95 ft 5 kts 239°
2026-05-07 20:41 -3.77744 -38.53889 96 ft 5 kts 214°
2026-05-07 20:41 -3.77752 -38.53921 96 ft 5 kts 280°
2026-05-07 20:41 -3.77763 -38.53950 96 ft 5 kts 205°
2026-05-07 20:41 -3.77791 -38.53962 96 ft 2 kts 202°
2026-05-07 20:42 -3.77793 -38.53963 96 ft 0 kts 203°
2026-05-07 20:42 -3.77795 -38.53964 96 ft 0 kts 203°